Wetterdaten: Sonntag, 16.11.2014
Datum Zeit Temperatur Luftfeuchte Luftdruck Regen Wind Richtung Richtung Taupunkt Windchill Windben
16.11.2014 00:00 5,8 C 95 % 1001,7 hPa 0,0 l/m 0,0 km/h (0 Bft) SO 135 5,1 C 7,8 C 0,0 km/h (0 Bft)
16.11.2014 00:05 5,8 C 95 % 1001,7 hPa 0,0 l/m 0,0 km/h (0 Bft) SO 135 5,1 C 7,8 C 0,0 km/h (0 Bft)
16.11.2014 00:10 5,8 C 95 % 1001,7 hPa 0,0 l/m 0,0 km/h (0 Bft) SO 135 5,1 C 7,8 C 0,0 km/h (0 Bft)
16.11.2014 00:15 5,9 C 95 % 1001,8 hPa 0,0 l/m 0,0 km/h (0 Bft) SO 135 5,2 C 7,8 C 0,0 km/h (0 Bft)
16.11.2014 00:20 5,9 C 95 % 1001,8 hPa 0,0 l/m 0,0 km/h (0 Bft) SO 135 5,2 C 7,8 C 0,0 km/h (0 Bft)
16.11.2014 00:25 5,9 C 95 % 1001,8 hPa 0,0 l/m 0,0 km/h (0 Bft) SO 135 5,2 C 7,8 C 0,0 km/h (0 Bft)
16.11.2014 00:30 5,9 C 95 % 1001,8 hPa 0,0 l/m 0,0 km/h (0 Bft) SO 135 5,2 C 7,8 C 0,0 km/h (0 Bft)
16.11.2014 00:35 5,9 C 95 % 1002,1 hPa 0,0 l/m 0,0 km/h (0 Bft) SO 135 5,2 C 7,8 C 0,0 km/h (0 Bft)
16.11.2014 00:40 6,0 C 93 % 1002,1 hPa 0,0 l/m 0,0 km/h (0 Bft) SO 135 5,0 C 7,8 C 0,0 km/h (0 Bft)
16.11.2014 00:45 6,0 C 93 % 1002,1 hPa 0,0 l/m 0,0 km/h (0 Bft) SO 135 5,0 C 7,8 C 0,0 km/h (0 Bft)
16.11.2014 00:50 5,9 C 94 % 1002,1 hPa 0,0 l/m 0,0 km/h (0 Bft) SO 135 5,0 C 7,8 C 0,0 km/h (0 Bft)
16.11.2014 00:55 6,0 C 93 % 1002,3 hPa 0,0 l/m 0,0 km/h (0 Bft) SO 135 5,0 C 7,8 C 0,0 km/h (0 Bft)
16.11.2014 01:00 6,0 C 93 % 1002,3 hPa 0,0 l/m 0,0 km/h (0 Bft) SO 135 5,0 C 7,8 C 0,0 km/h (0 Bft)
16.11.2014 01:05 6,0 C 93 % 1002,3 hPa 0,0 l/m 0,0 km/h (0 Bft) SO 135 5,0 C 7,8 C 0,0 km/h (0 Bft)
16.11.2014 01:10 6,1 C 93 % 1002,3 hPa 0,0 l/m 0,0 km/h (0 Bft) SO 135 5,1 C 7,8 C 0,0 km/h (0 Bft)
16.11.2014 01:15 6,1 C 93 % 1002,4 hPa 0,0 l/m 0,0 km/h (0 Bft) SO 135 5,1 C 7,8 C 0,0 km/h (0 Bft)
16.11.2014 01:20 6,1 C 93 % 1002,4 hPa 0,0 l/m 0,0 km/h (0 Bft) SO 135 5,1 C 7,8 C 0,0 km/h (0 Bft)
16.11.2014 01:25 6,2 C 93 % 1002,4 hPa 0,0 l/m 0,0 km/h (0 Bft) SO 135 5,2 C 7,8 C 0,0 km/h (0 Bft)
16.11.2014 01:30 6,2 C 93 % 1002,4 hPa 0,0 l/m 0,0 km/h (0 Bft) SO 135 5,2 C 7,8 C 0,0 km/h (0 Bft)
16.11.2014 01:35 6,3 C 93 % 1002,6 hPa 0,0 l/m 0,0 km/h (0 Bft) SO 135 5,3 C 7,8 C 0,0 km/h (0 Bft)
16.11.2014 01:40 6,3 C 93 % 1002,6 hPa 0,0 l/m 0,0 km/h (0 Bft) SO 135 5,3 C 7,8 C 0,0 km/h (0 Bft)
16.11.2014 01:45 6,4 C 93 % 1002,6 hPa 0,0 l/m 0,0 km/h (0 Bft) SO 135 5,4 C 7,8 C 0,0 km/h (0 Bft)
16.11.2014 01:50 6,5 C 93 % 1002,6 hPa 0,0 l/m 0,0 km/h (0 Bft) SO 135 5,5 C 7,8 C 0,0 km/h (0 Bft)
16.11.2014 01:55 6,5 C 93 % 1002,4 hPa 0,0 l/m 0,0 km/h (0 Bft) SO 135 5,5 C 7,8 C 0,0 km/h (0 Bft)
16.11.2014 02:00 6,6 C 93 % 1002,4 hPa 0,0 l/m 0,0 km/h (0 Bft) SO 135 5,6 C 7,8 C 0,0 km/h (0 Bft)
16.11.2014 02:05 6,6 C 93 % 1002,4 hPa 0,0 l/m 0,0 km/h (0 Bft) SO 135 5,6 C 7,8 C 0,0 km/h (0 Bft)
16.11.2014 02:10 6,6 C 92 % 1002,4 hPa 0,0 l/m 0,0 km/h (0 Bft) SO 135 5,4 C 7,8 C 0,0 km/h (0 Bft)
16.11.2014 02:15 6,6 C 91 % 1002,6 hPa 0,0 l/m 0,0 km/h (0 Bft) SO 135 5,2 C 7,8 C 0,0 km/h (0 Bft)
16.11.2014 02:20 6,3 C 90 % 1002,6 hPa 0,0 l/m 0,0 km/h (0 Bft) SO 135 4,8 C 7,8 C 0,0 km/h (0 Bft)
16.11.2014 02:25 6,4 C 90 % 1002,6 hPa 0,0 l/m 0,0 km/h (0 Bft) SO 135 4,9 C 7,8 C 0,0 km/h (0 Bft)
16.11.2014 02:30 6,4 C 89 % 1002,6 hPa 0,0 l/m 0,0 km/h (0 Bft) SO 135 4,7 C 7,8 C 0,0 km/h (0 Bft)
16.11.2014 02:35 6,4 C 88 % 1002,8 hPa 0,0 l/m 0,0 km/h (0 Bft) SO 135 4,6 C 7,8 C 0,0 km/h (0 Bft)
16.11.2014 02:38 6,3 C 86 % 1002,8 hPa 0,0 l/m 0,0 km/h (0 Bft) SO 135 4,1 C 7,8 C 0,0 km/h (0 Bft)
16.11.2014 02:40 6,3 C 86 % 1002,8 hPa 0,0 l/m 0,0 km/h (0 Bft) SO 135 4,1 C 7,8 C 0,0 km/h (0 Bft)
16.11.2014 02:45 6,2 C 86 % 1002,8 hPa 0,0 l/m 0,0 km/h (0 Bft) SO 135 4,0 C 7,8 C 0,0 km/h (0 Bft)
16.11.2014 02:50 6,0 C 83 % 1002,8 hPa 0,0 l/m 0,0 km/h (0 Bft) SO 135 3,3 C 7,8 C 0,0 km/h (0 Bft)
16.11.2014 02:55 5,9 C 83 % 1003,1 hPa 0,0 l/m 0,0 km/h (0 Bft) SO 135 3,2 C 7,8 C 0,0 km/h (0 Bft)
16.11.2014 03:00 5,8 C 81 % 1003,1 hPa 0,0 l/m 0,0 km/h (0 Bft) SO 135 2,8 C 7,8 C 0,0 km/h (0 Bft)
16.11.2014 03:05 5,7 C 79 % 1003,1 hPa 0,0 l/m 0,0 km/h (0 Bft) SO 135 2,3 C 7,8 C 0,0 km/h (0 Bft)
16.11.2014 03:10 5,6 C 78 % 1003,1 hPa 0,0 l/m 0,0 km/h (0 Bft) SO 135 2,1 C 7,8 C 0,0 km/h (0 Bft)
16.11.2014 03:15 5,5 C 79 % 1003,1 hPa 0,0 l/m 0,0 km/h (0 Bft) SO 135 2,2 C 7,8 C 0,0 km/h (0 Bft)
16.11.2014 03:20 5,4 C 78 % 1003,1 hPa 0,0 l/m 0,0 km/h (0 Bft) SO 135 1,9 C 7,8 C 0,0 km/h (0 Bft)
16.11.2014 03:25 5,3 C 78 % 1003,1 hPa 0,0 l/m 0,0 km/h (0 Bft) SO 135 1,8 C 7,8 C 0,0 km/h (0 Bft)
16.11.2014 03:30 5,2 C 79 % 1003,1 hPa 0,0 l/m 0,0 km/h (0 Bft) SO 135 1,9 C 7,8 C 0,0 km/h (0 Bft)
16.11.2014 03:35 5,1 C 79 % 1003,2 hPa 0,0 l/m 0,0 km/h (0 Bft) SO 135 1,8 C 7,8 C 0,0 km/h (0 Bft)
16.11.2014 03:40 4,9 C 80 % 1003,2 hPa 0,0 l/m 0,0 km/h (0 Bft) SO 135 1,7 C 7,8 C 0,0 km/h (0 Bft)
16.11.2014 03:45 4,8 C 81 % 1003,2 hPa 0,0 l/m 0,0 km/h (0 Bft) SO 135 1,8 C 7,8 C 0,0 km/h (0 Bft)
16.11.2014 03:50 4,8 C 81 % 1003,2 hPa 0,0 l/m 0,0 km/h (0 Bft) SO 135 1,8 C 7,8 C 0,0 km/h (0 Bft)
16.11.2014 03:55 4,7 C 81 % 1003,1 hPa 0,0 l/m 0,0 km/h (0 Bft) SO 135 1,7 C 7,8 C 0,0 km/h (0 Bft)
16.11.2014 04:00 4,8 C 82 % 1003,1 hPa 0,0 l/m 0,0 km/h (0 Bft) SO 135 2,0 C 7,8 C 0,0 km/h (0 Bft)
16.11.2014 04:05 4,8 C 82 % 1003,1 hPa 0,0 l/m 0,0 km/h (0 Bft) SO 135 2,0 C 7,8 C 0,0 km/h (0 Bft)
16.11.2014 04:10 4,9 C 82 % 1003,1 hPa 0,0 l/m 0,0 km/h (0 Bft) SO 135 2,1 C 7,8 C 0,0 km/h (0 Bft)
16.11.2014 04:15 4,9 C 82 % 1003,5 hPa 0,0 l/m 0,0 km/h (0 Bft) SO 135 2,1 C 7,8 C 0,0 km/h (0 Bft)
16.11.2014 04:20 4,8 C 82 % 1003,5 hPa 0,0 l/m 0,0 km/h (0 Bft) SO 135 2,0 C 7,8 C 0,0 km/h (0 Bft)
16.11.2014 04:25 4,6 C 83 % 1003,5 hPa 0,0 l/m 0,0 km/h (0 Bft) SO 135 2,0 C 7,8 C 0,0 km/h (0 Bft)
16.11.2014 04:30 4,5 C 84 % 1003,5 hPa 0,0 l/m 0,0 km/h (0 Bft) SO 135 2,0 C 7,8 C 0,0 km/h (0 Bft)
16.11.2014 04:35 4,5 C 85 % 1003,8 hPa 0,0 l/m 0,0 km/h (0 Bft) SO 135 2,2 C 7,8 C 0,0 km/h (0 Bft)
16.11.2014 04:40 4,4 C 86 % 1003,8 hPa 0,0 l/m 0,0 km/h (0 Bft) SO 135 2,3 C 7,8 C 0,0 km/h (0 Bft)
16.11.2014 04:45 4,4 C 86 % 1003,8 hPa 0,0 l/m 0,0 km/h (0 Bft) SO 135 2,3 C 7,8 C 0,0 km/h (0 Bft)
16.11.2014 04:50 4,2 C 86 % 1003,8 hPa 0,0 l/m 0,0 km/h (0 Bft) SO 135 2,1 C 7,8 C 0,0 km/h (0 Bft)
16.11.2014 04:55 4,2 C 87 % 1004,1 hPa 0,0 l/m 0,0 km/h (0 Bft) SO 135 2,2 C 7,8 C 0,0 km/h (0 Bft)
16.11.2014 05:00 4,1 C 87 % 1004,1 hPa 0,0 l/m 0,0 km/h (0 Bft) SO 135 2,1 C 7,8 C 0,0 km/h (0 Bft)
16.11.2014 05:05 4,2 C 87 % 1004,1 hPa 0,0 l/m 0,0 km/h (0 Bft) SO 135 2,2 C 7,8 C 0,0 km/h (0 Bft)
16.11.2014 05:10 4,2 C 88 % 1004,1 hPa 0,0 l/m 0,0 km/h (0 Bft) SO 135 2,4 C 7,8 C 0,0 km/h (0 Bft)
16.11.2014 05:15 4,2 C 88 % 1003,9 hPa 0,0 l/m 0,0 km/h (0 Bft) SO 135 2,4 C 7,8 C 0,0 km/h (0 Bft)
16.11.2014 05:20 4,2 C 88 % 1003,9 hPa 0,0 l/m 0,0 km/h (0 Bft) SO 135 2,4 C 7,8 C 0,0 km/h (0 Bft)
16.11.2014 05:25 4,1 C 88 % 1003,9 hPa 0,0 l/m 0,0 km/h (0 Bft) SO 135 2,3 C 7,8 C 0,0 km/h (0 Bft)
16.11.2014 05:30 4,0 C 88 % 1003,9 hPa 0,0 l/m 0,0 km/h (0 Bft) SO 135 2,2 C 7,8 C 0,0 km/h (0 Bft)
16.11.2014 05:35 3,8 C 88 % 1003,9 hPa 0,0 l/m 0,0 km/h (0 Bft) SO 135 2,0 C 7,8 C 0,0 km/h (0 Bft)
16.11.2014 05:38 3,8 C 88 % 1003,9 hPa 0,0 l/m 0,0 km/h (0 Bft) SO 135 2,0 C 7,8 C 0,0 km/h (0 Bft)
16.11.2014 05:40 3,8 C 88 % 1003,9 hPa 0,0 l/m 0,0 km/h (0 Bft) SO 135 2,0 C 7,8 C 0,0 km/h (0 Bft)
16.11.2014 05:45 4,0 C 88 % 1003,9 hPa 0,0 l/m 0,0 km/h (0 Bft) SO 135 2,2 C 7,8 C 0,0 km/h (0 Bft)
16.11.2014 05:50 4,2 C 88 % 1003,9 hPa 0,0 l/m 0,0 km/h (0 Bft) SO 135 2,4 C 7,8 C 0,0 km/h (0 Bft)
16.11.2014 05:55 4,2 C 88 % 1004,1 hPa 0,0 l/m 0,0 km/h (0 Bft) SO 135 2,4 C 7,8 C 0,0 km/h (0 Bft)
16.11.2014 06:00 4,4 C 87 % 1004,1 hPa 0,0 l/m 0,0 km/h (0 Bft) SO 135 2,4 C 7,8 C 0,0 km/h (0 Bft)
16.11.2014 06:05 4,6 C 87 % 1004,1 hPa 0,0 l/m 0,0 km/h (0 Bft) SO 135 2,6 C 7,8 C 0,0 km/h (0 Bft)
16.11.2014 06:10 4,6 C 86 % 1004,1 hPa 0,0 l/m 0,0 km/h (0 Bft) SO 135 2,5 C 7,8 C 0,0 km/h (0 Bft)
16.11.2014 06:15 4,7 C 86 % 1004,4 hPa 0,0 l/m 0,0 km/h (0 Bft) SO 135 2,6 C 7,8 C 0,0 km/h (0 Bft)
16.11.2014 06:20 4,7 C 85 % 1004,4 hPa 0,0 l/m 0,0 km/h (0 Bft) SO 135 2,4 C 7,8 C 0,0 km/h (0 Bft)
16.11.2014 06:25 4,6 C 85 % 1004,4 hPa 0,0 l/m 0,0 km/h (0 Bft) SO 135 2,3 C 7,8 C 0,0 km/h (0 Bft)
16.11.2014 06:30 4,7 C 85 % 1004,4 hPa 0,0 l/m 0,0 km/h (0 Bft) SO 135 2,4 C 7,8 C 0,0 km/h (0 Bft)
16.11.2014 06:35 4,7 C 85 % 1005,0 hPa 0,0 l/m 0,0 km/h (0 Bft) SO 135 2,4 C 7,8 C 0,0 km/h (0 Bft)
16.11.2014 06:40 4,7 C 85 % 1005,0 hPa 0,0 l/m 0,0 km/h (0 Bft) SO 135 2,4 C 7,8 C 0,0 km/h (0 Bft)
16.11.2014 06:45 4,6 C 85 % 1005,0 hPa 0,0 l/m 0,0 km/h (0 Bft) SO 135 2,3 C 7,8 C 0,0 km/h (0 Bft)
16.11.2014 06:50 4,6 C 85 % 1005,0 hPa 0,0 l/m 0,0 km/h (0 Bft) SO 135 2,3 C 7,8 C 0,0 km/h (0 Bft)
16.11.2014 06:55 4,6 C 85 % 1005,2 hPa 0,0 l/m 0,0 km/h (0 Bft) SO 135 2,3 C 7,8 C 0,0 km/h (0 Bft)
16.11.2014 07:00 4,7 C 85 % 1005,2 hPa 0,0 l/m 0,0 km/h (0 Bft) SO 135 2,4 C 7,8 C 0,0 km/h (0 Bft)
16.11.2014 07:05 4,7 C 85 % 1005,2 hPa 0,0 l/m 0,0 km/h (0 Bft) SO 135 2,4 C 7,8 C 0,0 km/h (0 Bft)
16.11.2014 07:10 4,6 C 85 % 1005,2 hPa 0,0 l/m 0,0 km/h (0 Bft) SO 135 2,3 C 7,8 C 0,0 km/h (0 Bft)
16.11.2014 07:15 4,6 C 85 % 1005,6 hPa 0,0 l/m 0,0 km/h (0 Bft) SO 135 2,3 C 7,8 C 0,0 km/h (0 Bft)
16.11.2014 07:20 4,7 C 85 % 1005,6 hPa 0,0 l/m 0,0 km/h (0 Bft) SO 135 2,4 C 7,8 C 0,0 km/h (0 Bft)
16.11.2014 07:25 4,8 C 85 % 1005,6 hPa 0,0 l/m 0,0 km/h (0 Bft) SO 135 2,5 C 7,8 C 0,0 km/h (0 Bft)
16.11.2014 07:30 4,7 C 84 % 1005,6 hPa 0,0 l/m 0,0 km/h (0 Bft) SO 135 2,2 C 7,8 C 0,0 km/h (0 Bft)
16.11.2014 07:35 4,7 C 84 % 1005,7 hPa 0,0 l/m 0,0 km/h (0 Bft) SO 135 2,2 C 7,8 C 0,0 km/h (0 Bft)
16.11.2014 07:40 4,6 C 84 % 1005,7 hPa 0,0 l/m 0,0 km/h (0 Bft) SO 135 2,1 C 7,8 C 0,0 km/h (0 Bft)
16.11.2014 07:45 4,6 C 84 % 1005,7 hPa 0,0 l/m 0,0 km/h (0 Bft) SO 135 2,1 C 7,8 C 0,0 km/h (0 Bft)
16.11.2014 07:50 4,5 C 84 % 1005,7 hPa 0,0 l/m 0,0 km/h (0 Bft) SO 135 2,0 C 7,8 C 0,0 km/h (0 Bft)
16.11.2014 07:55 4,6 C 84 % 1006,1 hPa 0,0 l/m 0,0 km/h (0 Bft) SO 135 2,1 C 7,8 C 0,0 km/h (0 Bft)
16.11.2014 08:00 4,7 C 84 % 1006,1 hPa 0,0 l/m 0,0 km/h (0 Bft) SO 135 2,2 C 7,8 C 0,0 km/h (0 Bft)
16.11.2014 08:05 4,7 C 84 % 1006,1 hPa 0,0 l/m 0,0 km/h (0 Bft) SO 135 2,2 C 7,8 C 0,0 km/h (0 Bft)
16.11.2014 08:10 4,7 C 84 % 1006,1 hPa 0,0 l/m 0,0 km/h (0 Bft) SO 135 2,2 C 7,8 C 0,0 km/h (0 Bft)
16.11.2014 08:15 4,8 C 84 % 1006,2 hPa 0,0 l/m 0,0 km/h (0 Bft) SO 135 2,3 C 7,8 C 0,0 km/h (0 Bft)
16.11.2014 08:20 4,7 C 84 % 1006,2 hPa 0,0 l/m 0,0 km/h (0 Bft) SO 135 2,2 C 7,8 C 0,0 km/h (0 Bft)
16.11.2014 08:25 4,8 C 84 % 1006,2 hPa 0,0 l/m 0,0 km/h (0 Bft) SO 135 2,3 C 7,8 C 0,0 km/h (0 Bft)
16.11.2014 08:30 4,8 C 84 % 1006,2 hPa 0,0 l/m 0,0 km/h (0 Bft) SO 135 2,3 C 7,8 C 0,0 km/h (0 Bft)
16.11.2014 08:35 4,7 C 84 % 1006,5 hPa 0,0 l/m 0,0 km/h (0 Bft) SO 135 2,2 C 7,8 C 0,0 km/h (0 Bft)
16.11.2014 08:38 4,8 C 84 % 1006,5 hPa 0,0 l/m 0,0 km/h (0 Bft) SO 135 2,3 C 7,8 C 0,0 km/h (0 Bft)
16.11.2014 08:40 4,8 C 84 % 1006,5 hPa 0,0 l/m 0,0 km/h (0 Bft) SO 135 2,3 C 7,8 C 0,0 km/h (0 Bft)
16.11.2014 08:45 4,9 C 84 % 1006,5 hPa 0,0 l/m 0,0 km/h (0 Bft) SO 135 2,4 C 7,8 C 0,0 km/h (0 Bft)
16.11.2014 08:50 4,9 C 84 % 1006,5 hPa 0,0 l/m 0,0 km/h (0 Bft) SO 135 2,4 C 7,8 C 0,0 km/h (0 Bft)
16.11.2014 08:55 5,0 C 84 % 1006,9 hPa 0,0 l/m 0,0 km/h (0 Bft) SO 135 2,5 C 7,8 C 0,0 km/h (0 Bft)
16.11.2014 09:00 5,0 C 84 % 1006,9 hPa 0,0 l/m 0,0 km/h (0 Bft) SO 135 2,5 C 7,8 C 0,0 km/h (0 Bft)
16.11.2014 09:05 5,0 C 84 % 1006,9 hPa 0,0 l/m 0,0 km/h (0 Bft) SO 135 2,5 C 7,8 C 0,0 km/h (0 Bft)
16.11.2014 09:10 5,1 C 84 % 1006,9 hPa 0,0 l/m 0,0 km/h (0 Bft) SO 135 2,6 C 7,8 C 0,0 km/h (0 Bft)
16.11.2014 09:15 5,2 C 84 % 1007,2 hPa 0,0 l/m 0,0 km/h (0 Bft) SO 135 2,7 C 7,8 C 0,0 km/h (0 Bft)
16.11.2014 09:20 5,3 C 84 % 1007,2 hPa 0,0 l/m 0,0 km/h (0 Bft) SO 135 2,8 C 7,8 C 0,0 km/h (0 Bft)
16.11.2014 09:25 5,3 C 83 % 1007,2 hPa 0,0 l/m 0,0 km/h (0 Bft) SO 135 2,7 C 7,8 C 0,0 km/h (0 Bft)
16.11.2014 09:30 5,2 C 83 % 1007,2 hPa 0,0 l/m 0,0 km/h (0 Bft) SO 135 2,6 C 7,8 C 0,0 km/h (0 Bft)
16.11.2014 09:35 5,1 C 82 % 1007,4 hPa 0,0 l/m 0,0 km/h (0 Bft) SO 135 2,3 C 7,8 C 0,0 km/h (0 Bft)
16.11.2014 09:40 5,0 C 82 % 1007,4 hPa 0,0 l/m 0,0 km/h (0 Bft) SO 135 2,2 C 7,8 C 0,0 km/h (0 Bft)
16.11.2014 09:45 5,1 C 82 % 1007,4 hPa 0,0 l/m 0,0 km/h (0 Bft) SO 135 2,3 C 7,8 C 0,0 km/h (0 Bft)
16.11.2014 09:50 5,3 C 82 % 1007,4 hPa 0,0 l/m 0,0 km/h (0 Bft) SO 135 2,5 C 7,8 C 0,0 km/h (0 Bft)
16.11.2014 09:55 5,5 C 82 % 1007,5 hPa 0,0 l/m 0,0 km/h (0 Bft) SO 135 2,7 C 7,8 C 0,0 km/h (0 Bft)
16.11.2014 10:00 5,7 C 81 % 1007,5 hPa 0,0 l/m 0,0 km/h (0 Bft) SO 135 2,7 C 7,8 C 0,0 km/h (0 Bft)
16.11.2014 10:05 5,5 C 81 % 1007,5 hPa 0,0 l/m 0,0 km/h (0 Bft) SO 135 2,5 C 7,8 C 0,0 km/h (0 Bft)
16.11.2014 10:10 5,6 C 81 % 1007,5 hPa 0,0 l/m 0,0 km/h (0 Bft) SO 135 2,6 C 7,8 C 0,0 km/h (0 Bft)
16.11.2014 10:15 5,9 C 81 % 1007,4 hPa 0,0 l/m 0,0 km/h (0 Bft) SO 135 2,9 C 7,8 C 0,0 km/h (0 Bft)
16.11.2014 10:20 6,8 C 79 % 1007,4 hPa 0,0 l/m 0,0 km/h (0 Bft) SO 135 3,4 C 7,8 C 0,0 km/h (0 Bft)
16.11.2014 10:25 7,2 C 78 % 1007,4 hPa 0,0 l/m 0,0 km/h (0 Bft) SO 135 3,6 C 7,8 C 0,0 km/h (0 Bft)
16.11.2014 10:30 7,5 C 75 % 1007,4 hPa 0,0 l/m 0,0 km/h (0 Bft) SO 135 3,4 C 7,8 C 0,0 km/h (0 Bft)
16.11.2014 10:35 7,6 C 74 % 1007,8 hPa 0,0 l/m 0,0 km/h (0 Bft) SO 135 3,3 C 7,8 C 0,0 km/h (0 Bft)
16.11.2014 10:40 7,5 C 75 % 1007,8 hPa 0,0 l/m 0,0 km/h (0 Bft) SO 135 3,4 C 7,8 C 0,0 km/h (0 Bft)
16.11.2014 10:45 7,5 C 75 % 1007,8 hPa 0,0 l/m 0,0 km/h (0 Bft) SO 135 3,4 C 7,8 C 0,0 km/h (0 Bft)
16.11.2014 10:50 7,4 C 75 % 1007,8 hPa 0,0 l/m 0,0 km/h (0 Bft) SO 135 3,3 C 7,8 C 0,0 km/h (0 Bft)
16.11.2014 10:55 7,5 C 74 % 1007,9 hPa 0,0 l/m 0,0 km/h (0 Bft) SO 135 3,2 C 7,8 C 0,0 km/h (0 Bft)
16.11.2014 11:00 7,8 C 74 % 1007,9 hPa 0,0 l/m 0,0 km/h (0 Bft) SO 135 3,5 C 7,8 C 0,0 km/h (0 Bft)
16.11.2014 11:05 7,7 C 72 % 1007,9 hPa 0,0 l/m 0,0 km/h (0 Bft) SO 135 3,0 C 7,8 C 0,0 km/h (0 Bft)
16.11.2014 11:10 7,6 C 73 % 1007,9 hPa 0,0 l/m 0,0 km/h (0 Bft) SO 135 3,1 C 7,8 C 0,0 km/h (0 Bft)
16.11.2014 11:15 7,5 C 73 % 1008,1 hPa 0,0 l/m 0,0 km/h (0 Bft) SO 135 3,0 C 7,8 C 0,0 km/h (0 Bft)
16.11.2014 11:20 7,5 C 74 % 1008,1 hPa 0,0 l/m 0,0 km/h (0 Bft) SO 135 3,2 C 7,8 C 0,0 km/h (0 Bft)
16.11.2014 11:25 7,5 C 73 % 1008,1 hPa 0,0 l/m 0,0 km/h (0 Bft) SO 135 3,0 C 7,8 C 0,0 km/h (0 Bft)
16.11.2014 11:30 7,6 C 74 % 1008,1 hPa 0,0 l/m 0,0 km/h (0 Bft) SO 135 3,3 C 7,8 C 0,0 km/h (0 Bft)
16.11.2014 11:33 7,7 C 73 % 1007,9 hPa 0,0 l/m 0,0 km/h (0 Bft) SO 135 3,2 C 7,8 C 0,0 km/h (0 Bft)
16.11.2014 11:35 7,7 C 73 % 1007,9 hPa 0,0 l/m 0,0 km/h (0 Bft) SO 135 3,2 C 7,8 C 0,0 km/h (0 Bft)
16.11.2014 11:40 7,9 C 74 % 1007,9 hPa 0,0 l/m 0,0 km/h (0 Bft) SO 135 3,6 C 7,8 C 0,0 km/h (0 Bft)
16.11.2014 11:45 8,2 C 74 % 1007,9 hPa 0,0 l/m 0,0 km/h (0 Bft) SO 135 3,8 C 7,8 C 0,0 km/h (0 Bft)
16.11.2014 11:50 8,1 C 73 % 1007,9 hPa 0,0 l/m 0,0 km/h (0 Bft) SO 135 3,6 C 7,8 C 0,0 km/h (0 Bft)
16.11.2014 11:55 8,3 C 73 % 1007,9 hPa 0,0 l/m 0,0 km/h (0 Bft) SO 135 3,8 C 7,8 C 0,0 km/h (0 Bft)
16.11.2014 12:00 8,4 C 72 % 1007,9 hPa 0,0 l/m 0,0 km/h (0 Bft) SO 135 3,7 C 7,8 C 0,0 km/h (0 Bft)
16.11.2014 12:05 8,6 C 71 % 1007,9 hPa 0,0 l/m 0,0 km/h (0 Bft) SO 135 3,6 C 7,8 C 0,0 km/h (0 Bft)
16.11.2014 12:10 8,8 C 70 % 1007,9 hPa 0,0 l/m 0,0 km/h (0 Bft) SO 135 3,6 C 7,8 C 0,0 km/h (0 Bft)
16.11.2014 12:15 8,8 C 70 % 1007,9 hPa 0,0 l/m 0,0 km/h (0 Bft) SO 135 3,6 C 7,8 C 0,0 km/h (0 Bft)
16.11.2014 12:20 9,0 C 69 % 1007,9 hPa 0,0 l/m 0,0 km/h (0 Bft) SO 135 3,6 C 7,8 C 0,0 km/h (0 Bft)
16.11.2014 12:25 9,2 C 70 % 1007,9 hPa 0,0 l/m 0,0 km/h (0 Bft) SO 135 4,0 C 7,8 C 0,0 km/h (0 Bft)
16.11.2014 12:30 9,2 C 66 % 1007,9 hPa 0,0 l/m 0,0 km/h (0 Bft) SO 135 3,2 C 7,8 C 0,0 km/h (0 Bft)
16.11.2014 12:35 9,1 C 67 % 1007,7 hPa 0,0 l/m 0,0 km/h (0 Bft) SO 135 3,3 C 7,8 C 0,0 km/h (0 Bft)
16.11.2014 12:40 8,9 C 67 % 1007,7 hPa 0,0 l/m 0,0 km/h (0 Bft) SO 135 3,1 C 7,8 C 0,0 km/h (0 Bft)
16.11.2014 12:45 9,1 C 66 % 1007,7 hPa 0,0 l/m 0,0 km/h (0 Bft) SO 135 3,1 C 7,8 C 0,0 km/h (0 Bft)
16.11.2014 12:50 9,5 C 65 % 1007,7 hPa 0,0 l/m 0,0 km/h (0 Bft) SO 135 3,3 C 7,8 C 0,0 km/h (0 Bft)
16.11.2014 12:55 9,6 C 64 % 1007,6 hPa 0,0 l/m 0,0 km/h (0 Bft) SO 135 3,1 C 7,8 C 0,0 km/h (0 Bft)
16.11.2014 13:00 9,8 C 64 % 1007,6 hPa 0,0 l/m 0,0 km/h (0 Bft) SO 135 3,3 C 7,8 C 0,0 km/h (0 Bft)
16.11.2014 13:05 9,7 C 62 % 1007,6 hPa 0,0 l/m 0,0 km/h (0 Bft) SO 135 2,8 C 7,8 C 0,0 km/h (0 Bft)
16.11.2014 13:10 9,6 C 63 % 1007,6 hPa 0,0 l/m 0,0 km/h (0 Bft) SO 135 2,9 C 7,8 C 0,0 km/h (0 Bft)
16.11.2014 13:15 9,6 C 62 % 1007,6 hPa 0,0 l/m 0,0 km/h (0 Bft) SO 135 2,7 C 7,8 C 0,0 km/h (0 Bft)
16.11.2014 13:20 9,5 C 63 % 1007,6 hPa 0,0 l/m 0,0 km/h (0 Bft) SO 135 2,8 C 7,8 C 0,0 km/h (0 Bft)
16.11.2014 13:25 9,4 C 63 % 1007,6 hPa 0,0 l/m 0,0 km/h (0 Bft) SO 135 2,7 C 7,8 C 0,0 km/h (0 Bft)
16.11.2014 13:30 9,2 C 63 % 1007,6 hPa 0,0 l/m 0,0 km/h (0 Bft) SO 135 2,5 C 7,8 C 0,0 km/h (0 Bft)
16.11.2014 13:35 9,1 C 64 % 1007,6 hPa 0,0 l/m 0,0 km/h (0 Bft) SO 135 2,7 C 7,8 C 0,0 km/h (0 Bft)
16.11.2014 13:40 9,1 C 65 % 1007,6 hPa 0,0 l/m 0,0 km/h (0 Bft) SO 135 2,9 C 7,8 C 0,0 km/h (0 Bft)
16.11.2014 13:45 9,1 C 65 % 1007,6 hPa 0,0 l/m 0,0 km/h (0 Bft) SO 135 2,9 C 7,8 C 0,0 km/h (0 Bft)
16.11.2014 13:50 9,1 C 62 % 1007,6 hPa 0,0 l/m 0,0 km/h (0 Bft) SO 135 2,2 C 7,8 C 0,0 km/h (0 Bft)
16.11.2014 13:55 9,6 C 63 % 1007,4 hPa 0,0 l/m 0,0 km/h (0 Bft) SO 135 2,9 C 7,8 C 0,0 km/h (0 Bft)
16.11.2014 14:00 9,8 C 62 % 1007,4 hPa 0,0 l/m 0,0 km/h (0 Bft) SO 135 2,9 C 7,8 C 0,0 km/h (0 Bft)
16.11.2014 14:05 9,7 C 64 % 1007,4 hPa 0,0 l/m 0,0 km/h (0 Bft) SO 135 3,2 C 7,8 C 0,0 km/h (0 Bft)
16.11.2014 14:10 9,5 C 63 % 1007,4 hPa 0,0 l/m 0,0 km/h (0 Bft) SO 135 2,8 C 7,8 C 0,0 km/h (0 Bft)
16.11.2014 14:15 9,4 C 64 % 1007,4 hPa 0,0 l/m 0,0 km/h (0 Bft) SO 135 2,9 C 7,8 C 0,0 km/h (0 Bft)
16.11.2014 14:20 9,1 C 64 % 1007,4 hPa 0,0 l/m 0,0 km/h (0 Bft) SO 135 2,7 C 7,8 C 0,0 km/h (0 Bft)
16.11.2014 14:25 8,8 C 65 % 1007,4 hPa 0,0 l/m 0,0 km/h (0 Bft) SO 135 2,6 C 7,8 C 0,0 km/h (0 Bft)
16.11.2014 14:30 8,5 C 67 % 1007,4 hPa 0,0 l/m 0,0 km/h (0 Bft) SO 135 2,7 C 7,8 C 0,0 km/h (0 Bft)
16.11.2014 14:33 8,5 C 68 % 1007,5 hPa 0,0 l/m 0,0 km/h (0 Bft) SO 135 2,9 C 7,8 C 0,0 km/h (0 Bft)
16.11.2014 14:35 8,5 C 68 % 1007,5 hPa 0,0 l/m 0,0 km/h (0 Bft) SO 135 2,9 C 7,8 C 0,0 km/h (0 Bft)
16.11.2014 14:40 8,7 C 67 % 1007,5 hPa 0,0 l/m 0,0 km/h (0 Bft) SO 135 2,9 C 7,8 C 0,0 km/h (0 Bft)
16.11.2014 14:45 8,8 C 67 % 1007,5 hPa 0,0 l/m 0,0 km/h (0 Bft) SO 135 3,0 C 7,8 C 0,0 km/h (0 Bft)
16.11.2014 14:50 8,9 C 66 % 1007,5 hPa 0,0 l/m 0,0 km/h (0 Bft) SO 135 2,9 C 7,8 C 0,0 km/h (0 Bft)
16.11.2014 14:55 9,2 C 65 % 1007,4 hPa 0,0 l/m 0,0 km/h (0 Bft) SO 135 3,0 C 7,8 C 0,0 km/h (0 Bft)
16.11.2014 15:00 9,3 C 63 % 1007,4 hPa 0,0 l/m 0,0 km/h (0 Bft) SO 135 2,6 C 7,8 C 0,0 km/h (0 Bft)
16.11.2014 15:05 9,1 C 64 % 1007,4 hPa 0,0 l/m 0,0 km/h (0 Bft) SO 135 2,7 C 7,8 C 0,0 km/h (0 Bft)
16.11.2014 15:10 8,4 C 68 % 1007,4 hPa 0,0 l/m 0,0 km/h (0 Bft) SO 135 2,8 C 7,8 C 0,0 km/h (0 Bft)
16.11.2014 15:15 8,1 C 71 % 1007,3 hPa 0,0 l/m 0,0 km/h (0 Bft) SO 135 3,2 C 7,8 C 0,0 km/h (0 Bft)
16.11.2014 15:20 7,8 C 74 % 1007,3 hPa 0,0 l/m 0,0 km/h (0 Bft) SO 135 3,5 C 7,8 C 0,0 km/h (0 Bft)
16.11.2014 15:25 7,4 C 74 % 1007,3 hPa 0,0 l/m 0,0 km/h (0 Bft) SO 135 3,1 C 7,8 C 0,0 km/h (0 Bft)
16.11.2014 15:30 7,0 C 76 % 1007,3 hPa 0,0 l/m 0,0 km/h (0 Bft) SO 135 3,1 C 7,8 C 0,0 km/h (0 Bft)
16.11.2014 15:35 6,9 C 78 % 1007,1 hPa 0,0 l/m 0,0 km/h (0 Bft) SO 135 3,3 C 7,8 C 0,0 km/h (0 Bft)
16.11.2014 15:40 6,6 C 78 % 1007,1 hPa 0,0 l/m 0,0 km/h (0 Bft) SO 135 3,0 C 7,8 C 0,0 km/h (0 Bft)
16.11.2014 15:45 6,5 C 78 % 1007,1 hPa 0,0 l/m 0,0 km/h (0 Bft) SO 135 2,9 C 7,8 C 0,0 km/h (0 Bft)
16.11.2014 15:50 6,5 C 79 % 1007,1 hPa 0,0 l/m 0,0 km/h (0 Bft) SO 135 3,1 C 7,8 C 0,0 km/h (0 Bft)
16.11.2014 15:55 6,1 C 79 % 1007,1 hPa 0,0 l/m 0,0 km/h (0 Bft) SO 135 2,7 C 7,8 C 0,0 km/h (0 Bft)
16.11.2014 16:00 6,1 C 80 % 1007,1 hPa 0,0 l/m 0,0 km/h (0 Bft) SO 135 2,9 C 7,8 C 0,0 km/h (0 Bft)
16.11.2014 16:05 6,0 C 80 % 1007,1 hPa 0,0 l/m 0,0 km/h (0 Bft) SO 135 2,8 C 7,8 C 0,0 km/h (0 Bft)
16.11.2014 16:10 6,0 C 82 % 1007,1 hPa 0,0 l/m 0,0 km/h (0 Bft) SO 135 3,2 C 7,8 C 0,0 km/h (0 Bft)
16.11.2014 16:15 5,8 C 83 % 1006,9 hPa 0,0 l/m 0,0 km/h (0 Bft) SO 135 3,1 C 7,8 C 0,0 km/h (0 Bft)
16.11.2014 16:20 5,4 C 83 % 1006,9 hPa 0,0 l/m 0,0 km/h (0 Bft) SO 135 2,7 C 7,8 C 0,0 km/h (0 Bft)
16.11.2014 16:25 5,4 C 83 % 1006,9 hPa 0,0 l/m 0,0 km/h (0 Bft) SO 135 2,7 C 7,8 C 0,0 km/h (0 Bft)
16.11.2014 16:30 5,3 C 84 % 1006,9 hPa 0,0 l/m 0,0 km/h (0 Bft) SO 135 2,8 C 7,8 C 0,0 km/h (0 Bft)
16.11.2014 16:35 5,2 C 84 % 1006,7 hPa 0,0 l/m 0,0 km/h (0 Bft) SO 135 2,7 C 7,8 C 0,0 km/h (0 Bft)
16.11.2014 16:40 5,1 C 84 % 1006,7 hPa 0,0 l/m 0,0 km/h (0 Bft) SO 135 2,6 C 7,8 C 0,0 km/h (0 Bft)
16.11.2014 16:45 5,0 C 84 % 1006,7 hPa 0,0 l/m 0,0 km/h (0 Bft) SO 135 2,5 C 7,8 C 0,0 km/h (0 Bft)
16.11.2014 16:50 4,4 C 84 % 1006,7 hPa 0,0 l/m 0,0 km/h (0 Bft) SO 135 1,9 C 7,8 C 0,0 km/h (0 Bft)
16.11.2014 16:55 4,6 C 85 % 1006,8 hPa 0,0 l/m 0,0 km/h (0 Bft) SO 135 2,3 C 7,8 C 0,0 km/h (0 Bft)
16.11.2014 17:00 4,6 C 85 % 1006,8 hPa 0,0 l/m 0,0 km/h (0 Bft) SO 135 2,3 C 7,8 C 0,0 km/h (0 Bft)
16.11.2014 17:05 4,6 C 86 % 1006,8 hPa 0,0 l/m 0,0 km/h (0 Bft) SO 135 2,5 C 7,8 C 0,0 km/h (0 Bft)
16.11.2014 17:10 4,1 C 85 % 1006,8 hPa 0,0 l/m 0,0 km/h (0 Bft) SO 135 1,8 C 7,8 C 0,0 km/h (0 Bft)
16.11.2014 17:15 3,4 C 85 % 1006,9 hPa 0,0 l/m 0,0 km/h (0 Bft) SO 135 1,1 C 7,8 C 0,0 km/h (0 Bft)
16.11.2014 17:20 3,0 C 85 % 1006,9 hPa 0,0 l/m 0,0 km/h (0 Bft) SO 135 0,7 C 7,8 C 0,0 km/h (0 Bft)
16.11.2014 17:25 2,8 C 86 % 1006,9 hPa 0,0 l/m 0,0 km/h (0 Bft) SO 135 0,7 C 7,8 C 0,0 km/h (0 Bft)
16.11.2014 17:30 2,9 C 86 % 1006,9 hPa 0,0 l/m 0,0 km/h (0 Bft) SO 135 0,8 C 7,8 C 0,0 km/h (0 Bft)
16.11.2014 17:33 2,8 C 87 % 1006,7 hPa 0,0 l/m 0,0 km/h (0 Bft) SO 135 0,9 C 7,8 C 0,0 km/h (0 Bft)
16.11.2014 17:35 2,8 C 87 % 1006,7 hPa 0,0 l/m 0,0 km/h (0 Bft) SO 135 0,9 C 7,8 C 0,0 km/h (0 Bft)
16.11.2014 17:40 3,4 C 87 % 1006,7 hPa 0,0 l/m 0,0 km/h (0 Bft) SO 135 1,4 C 7,8 C 0,0 km/h (0 Bft)
16.11.2014 17:45 2,9 C 88 % 1006,7 hPa 0,0 l/m 0,0 km/h (0 Bft) SO 135 1,1 C 7,8 C 0,0 km/h (0 Bft)
16.11.2014 17:50 2,6 C 88 % 1006,7 hPa 0,0 l/m 0,0 km/h (0 Bft) SO 135 0,8 C 7,8 C 0,0 km/h (0 Bft)
16.11.2014 17:55 3,3 C 88 % 1006,6 hPa 0,0 l/m 0,0 km/h (0 Bft) SO 135 1,5 C 7,8 C 0,0 km/h (0 Bft)
16.11.2014 18:00 3,6 C 89 % 1006,6 hPa 0,0 l/m 0,0 km/h (0 Bft) SO 135 2,0 C 7,8 C 0,0 km/h (0 Bft)
16.11.2014 18:05 3,6 C 89 % 1006,6 hPa 0,0 l/m 0,0 km/h (0 Bft) SO 135 2,0 C 7,8 C 0,0 km/h (0 Bft)
16.11.2014 18:10 2,1 C 89 % 1006,6 hPa 0,0 l/m 0,0 km/h (0 Bft) SO 135 0,5 C 7,8 C 0,0 km/h (0 Bft)
16.11.2014 18:15 1,8 C 89 % 1006,7 hPa 0,0 l/m 0,0 km/h (0 Bft) SO 135 0,2 C 7,8 C 0,0 km/h (0 Bft)
16.11.2014 18:20 1,6 C 89 % 1006,7 hPa 0,0 l/m 0,0 km/h (0 Bft) SO 135 -0,0 C 7,8 C 0,0 km/h (0 Bft)
16.11.2014 18:25 2,0 C 89 % 1006,7 hPa 0,0 l/m 0,0 km/h (0 Bft) SO 135 0,4 C 7,8 C 0,0 km/h (0 Bft)
16.11.2014 18:30 1,9 C 89 % 1006,7 hPa 0,0 l/m 0,0 km/h (0 Bft) SO 135 0,3 C 7,8 C 0,0 km/h (0 Bft)
16.11.2014 18:35 1,5 C 89 % 1006,8 hPa 0,0 l/m 0,0 km/h (0 Bft) SO 135 -0,1 C 7,8 C 0,0 km/h (0 Bft)
16.11.2014 18:40 1,3 C 89 % 1006,8 hPa 0,0 l/m 0,0 km/h (0 Bft) SO 135 -0,3 C 7,8 C 0,0 km/h (0 Bft)
16.11.2014 18:45 1,7 C 89 % 1006,8 hPa 0,0 l/m 0,0 km/h (0 Bft) SO 135 0,1 C 7,8 C 0,0 km/h (0 Bft)
16.11.2014 18:50 1,2 C 89 % 1006,8 hPa 0,0 l/m 0,0 km/h (0 Bft) SO 135 -0,4 C 7,8 C 0,0 km/h (0 Bft)
16.11.2014 18:55 1,6 C 90 % 1006,8 hPa 0,0 l/m 0,0 km/h (0 Bft) SO 135 0,1 C 7,8 C 0,0 km/h (0 Bft)
16.11.2014 19:00 1,3 C 90 % 1006,8 hPa 0,0 l/m 0,0 km/h (0 Bft) SO 135 -0,2 C 7,8 C 0,0 km/h (0 Bft)
16.11.2014 19:05 1,2 C 90 % 1006,8 hPa 0,0 l/m 0,0 km/h (0 Bft) SO 135 -0,3 C 7,8 C 0,0 km/h (0 Bft)
16.11.2014 19:10 1,0 C 90 % 1006,8 hPa 0,0 l/m 0,0 km/h (0 Bft) SO 135 -0,5 C 7,8 C 0,0 km/h (0 Bft)
16.11.2014 19:15 0,9 C 91 % 1006,7 hPa 0,0 l/m 0,0 km/h (0 Bft) SO 135 -0,4 C 7,8 C 0,0 km/h (0 Bft)
16.11.2014 19:20 0,9 C 91 % 1006,7 hPa 0,0 l/m 0,0 km/h (0 Bft) SO 135 -0,4 C 7,8 C 0,0 km/h (0 Bft)
16.11.2014 19:25 1,0 C 91 % 1006,7 hPa 0,0 l/m 0,0 km/h (0 Bft) SO 135 -0,3 C 7,8 C 0,0 km/h (0 Bft)
16.11.2014 19:30 1,6 C 91 % 1006,7 hPa 0,0 l/m 0,0 km/h (0 Bft) SO 135 0,3 C 7,8 C 0,0 km/h (0 Bft)
16.11.2014 19:35 0,9 C 91 % 1006,8 hPa 0,0 l/m 0,0 km/h (0 Bft) SO 135 -0,4 C 7,8 C 0,0 km/h (0 Bft)
16.11.2014 19:40 0,7 C 91 % 1006,8 hPa 0,0 l/m 0,0 km/h (0 Bft) SO 135 -0,6 C 7,8 C 0,0 km/h (0 Bft)
16.11.2014 19:45 0,8 C 91 % 1006,8 hPa 0,0 l/m 0,0 km/h (0 Bft) SO 135 -0,5 C 7,8 C 0,0 km/h (0 Bft)
16.11.2014 19:50 0,8 C 91 % 1006,8 hPa 0,0 l/m 0,0 km/h (0 Bft) SO 135 -0,5 C 7,8 C 0,0 km/h (0 Bft)
16.11.2014 19:55 0,8 C 91 % 1006,6 hPa 0,0 l/m 0,0 km/h (0 Bft) SO 135 -0,5 C 7,8 C 0,0 km/h (0 Bft)
16.11.2014 20:00 0,5 C 91 % 1006,6 hPa 0,0 l/m 0,0 km/h (0 Bft) SO 135 -0,8 C 7,8 C 0,0 km/h (0 Bft)
16.11.2014 20:05 0,2 C 91 % 1006,6 hPa 0,0 l/m 0,0 km/h (0 Bft) SO 135 -1,1 C 7,8 C 0,0 km/h (0 Bft)
16.11.2014 20:10 0,3 C 91 % 1006,6 hPa 0,0 l/m 0,0 km/h (0 Bft) SO 135 -1,0 C 7,8 C 0,0 km/h (0 Bft)
16.11.2014 20:15 0,4 C 91 % 1006,6 hPa 0,0 l/m 0,0 km/h (0 Bft) SO 135 -0,9 C 7,8 C 0,0 km/h (0 Bft)
16.11.2014 20:20 0,3 C 91 % 1006,6 hPa 0,0 l/m 0,0 km/h (0 Bft) SO 135 -1,0 C 7,8 C 0,0 km/h (0 Bft)
16.11.2014 20:25 0,3 C 91 % 1006,6 hPa 0,0 l/m 0,0 km/h (0 Bft) SO 135 -1,0 C 7,8 C 0,0 km/h (0 Bft)
16.11.2014 20:30 0,2 C 91 % 1006,6 hPa 0,0 l/m 0,0 km/h (0 Bft) SO 135 -1,1 C 7,8 C 0,0 km/h (0 Bft)
16.11.2014 20:33 0,2 C 91 % 1006,6 hPa 0,0 l/m 0,0 km/h (0 Bft) SO 135 -1,1 C 7,8 C 0,0 km/h (0 Bft)
16.11.2014 20:40 0,0 C 91 % 1006,6 hPa 0,0 l/m 0,0 km/h (0 Bft) SO 135 -1,3 C 7,8 C 0,0 km/h (0 Bft)
16.11.2014 20:45 -0,1 C 91 % 1006,6 hPa 0,0 l/m 0,0 km/h (0 Bft) SO 135 -1,4 C 7,8 C 0,0 km/h (0 Bft)
16.11.2014 20:50 0,3 C 92 % 1006,6 hPa 0,0 l/m 0,0 km/h (0 Bft) SO 135 -0,8 C 7,8 C 0,0 km/h (0 Bft)
16.11.2014 20:55 0,4 C 92 % 1007,1 hPa 0,0 l/m 0,0 km/h (0 Bft) SO 135 -0,7 C 7,8 C 0,0 km/h (0 Bft)
16.11.2014 21:00 0,8 C 92 % 1007,1 hPa 0,0 l/m 0,0 km/h (0 Bft) SO 135 -0,3 C 7,8 C 0,0 km/h (0 Bft)
16.11.2014 21:05 1,1 C 93 % 1007,1 hPa 0,0 l/m 0,0 km/h (0 Bft) SO 135 0,1 C 7,8 C 0,0 km/h (0 Bft)
16.11.2014 21:10 0,1 C 93 % 1007,1 hPa 0,0 l/m 0,0 km/h (0 Bft) SO 135 -0,9 C 7,8 C 0,0 km/h (0 Bft)
16.11.2014 21:15 0,5 C 93 % 1006,8 hPa 0,0 l/m 0,0 km/h (0 Bft) SO 135 -0,5 C 7,8 C 0,0 km/h (0 Bft)
16.11.2014 21:20 1,2 C 93 % 1006,8 hPa 0,0 l/m 0,0 km/h (0 Bft) SO 135 0,2 C 7,8 C 0,0 km/h (0 Bft)
16.11.2014 21:25 0,9 C 93 % 1006,8 hPa 0,0 l/m 0,0 km/h (0 Bft) SO 135 -0,1 C 7,8 C 0,0 km/h (0 Bft)
16.11.2014 21:30 -0,1 C 93 % 1006,8 hPa 0,0 l/m 0,0 km/h (0 Bft) SO 135 -1,1 C 7,8 C 0,0 km/h (0 Bft)
16.11.2014 21:35 -0,3 C 93 % 1006,8 hPa 0,0 l/m 0,0 km/h (0 Bft) SO 135 -1,3 C 7,8 C 0,0 km/h (0 Bft)
16.11.2014 21:40 0,3 C 93 % 1006,8 hPa 0,0 l/m 0,0 km/h (0 Bft) SO 135 -0,7 C 7,8 C 0,0 km/h (0 Bft)
16.11.2014 21:45 0,0 C 93 % 1006,8 hPa 0,0 l/m 0,0 km/h (0 Bft) SO 135 -1,0 C 7,8 C 0,0 km/h (0 Bft)
16.11.2014 21:50 -0,7 C 93 % 1006,8 hPa 0,0 l/m 0,0 km/h (0 Bft) SO 135 -1,7 C 7,8 C 0,0 km/h (0 Bft)
16.11.2014 21:55 -0,7 C 93 % 1006,9 hPa 0,0 l/m 0,0 km/h (0 Bft) SO 135 -1,7 C 7,8 C 0,0 km/h (0 Bft)
16.11.2014 22:00 0,2 C 93 % 1006,9 hPa 0,0 l/m 0,0 km/h (0 Bft) SO 135 -0,8 C 7,8 C 0,0 km/h (0 Bft)
16.11.2014 22:05 -0,5 C 93 % 1006,9 hPa 0,0 l/m 0,0 km/h (0 Bft) SO 135 -1,5 C 7,8 C 0,0 km/h (0 Bft)
16.11.2014 22:10 -0,2 C 93 % 1006,9 hPa 0,0 l/m 0,0 km/h (0 Bft) SO 135 -1,2 C 7,8 C 0,0 km/h (0 Bft)
16.11.2014 22:15 -0,3 C 93 % 1006,8 hPa 0,0 l/m 0,0 km/h (0 Bft) SO 135 -1,3 C 7,8 C 0,0 km/h (0 Bft)
16.11.2014 22:20 -1,0 C 93 % 1006,8 hPa 0,0 l/m 0,0 km/h (0 Bft) SO 135 -2,0 C 7,8 C 0,0 km/h (0 Bft)
16.11.2014 22:25 -1,1 C 93 % 1006,8 hPa 0,0 l/m 0,0 km/h (0 Bft) SO 135 -2,1 C 7,8 C 0,0 km/h (0 Bft)
16.11.2014 22:30 -1,0 C 93 % 1006,8 hPa 0,0 l/m 0,0 km/h (0 Bft) SO 135 -2,0 C 7,8 C 0,0 km/h (0 Bft)
16.11.2014 22:35 -0,8 C 93 % 1006,9 hPa 0,0 l/m 0,0 km/h (0 Bft) SO 135 -1,8 C 7,8 C 0,0 km/h (0 Bft)
16.11.2014 22:40 -0,8 C 93 % 1006,9 hPa 0,0 l/m 0,0 km/h (0 Bft) SO 135 -1,8 C 7,8 C 0,0 km/h (0 Bft)
16.11.2014 22:45 -0,6 C 93 % 1006,9 hPa 0,0 l/m 0,0 km/h (0 Bft) SO 135 -1,6 C 7,8 C 0,0 km/h (0 Bft)
16.11.2014 22:50 -0,6 C 93 % 1006,9 hPa 0,0 l/m 0,0 km/h (0 Bft) SO 135 -1,6 C 7,8 C 0,0 km/h (0 Bft)
16.11.2014 22:55 -0,4 C 93 % 1006,8 hPa 0,0 l/m 0,0 km/h (0 Bft) SO 135 -1,4 C 7,8 C 0,0 km/h (0 Bft)
16.11.2014 23:00 -1,0 C 93 % 1006,8 hPa 0,0 l/m 0,0 km/h (0 Bft) SO 135 -2,0 C 7,8 C 0,0 km/h (0 Bft)
16.11.2014 23:05 -0,9 C 93 % 1006,8 hPa 0,0 l/m 0,0 km/h (0 Bft) SO 135 -1,9 C 7,8 C 0,0 km/h (0 Bft)
16.11.2014 23:10 -1,1 C 93 % 1006,8 hPa 0,0 l/m 0,0 km/h (0 Bft) SO 135 -2,1 C 7,8 C 0,0 km/h (0 Bft)
16.11.2014 23:15 -0,2 C 93 % 1006,9 hPa 0,0 l/m 0,0 km/h (0 Bft) SO 135 -1,2 C 7,8 C 0,0 km/h (0 Bft)
16.11.2014 23:20 0,0 C 94 % 1006,9 hPa 0,0 l/m 0,0 km/h (0 Bft) SO 135 -0,8 C 7,8 C 0,0 km/h (0 Bft)
16.11.2014 23:25 -0,7 C 93 % 1006,9 hPa 0,0 l/m 0,0 km/h (0 Bft) SO 135 -1,7 C 7,8 C 0,0 km/h (0 Bft)
16.11.2014 23:28 -1,1 C 93 % 1006,9 hPa 0,0 l/m 0,0 km/h (0 Bft) SO 135 -2,1 C 7,8 C 0,0 km/h (0 Bft)
16.11.2014 23:30 -1,1 C 93 % 1006,9 hPa 0,0 l/m 0,0 km/h (0 Bft) SO 135 -2,1 C 7,8 C 0,0 km/h (0 Bft)
16.11.2014 23:35 -1,1 C 93 % 1006,8 hPa 0,0 l/m 0,0 km/h (0 Bft) SO 135 -2,1 C 7,8 C 0,0 km/h (0 Bft)
16.11.2014 23:40 -1,2 C 93 % 1006,8 hPa 0,0 l/m 0,0 km/h (0 Bft) SO 135 -2,2 C 7,8 C 0,0 km/h (0 Bft)
16.11.2014 23:45 -1,5 C 93 % 1006,8 hPa 0,0 l/m 0,0 km/h (0 Bft) SO 135 -2,5 C 7,8 C 0,0 km/h (0 Bft)
16.11.2014 23:50 -1,6 C 93 % 1006,8 hPa 0,0 l/m 0,0 km/h (0 Bft) SO 135 -2,6 C 7,8 C 0,0 km/h (0 Bft)
16.11.2014 23:55 -1,6 C 93 % 1006,9 hPa 0,0 l/m 0,0 km/h (0 Bft) SO 135 -2,6 C 7,8 C 0,0 km/h (0 Bft)
_ Min-Zeit 23:55 14:00 00:10 - 23:55 - - 23:55 23:55 23:55
Minimum _ -1,6 C 62 % 1001,7 hPa - 0,0 km/h (0 Bft) - - -2,6 C 7,8 C 0,0 km/h (0 Bft)
_ Max-Zeit 14:00 00:35 11:30 23:55 23:55 - - 02:05 23:55 23:55
Maximum _ 9,8 C 95 % 1008,1 hPa 0,0 l/m 0,0 km/h
SO (0 Bft)
- - 5,6 C 7,8 C 0,0 km/h
SO (0 Bft)
Durchschnitt _ 4,7 C 84 % 1005,9 hPa #0,0 l/m 0,0 km/h (0 Bft) - - - 2,0 C 7,8 C 0,0 km/h (0 Bft)